Location: Carri�res
(48.9069°N, 2.1792°E)
Time: 17:44:33
(UTC+00:00)

SeaSat 1 - Pass Details

Date: 17 May 2021
Orbit: 744 x 747 km, 108.0° (Epoch: 12 June)

Event Time Altitude Azimuth Distance (km) Brightness Sun altitude
Rises 23:41:29 0° 38° (NE) 3,202 6.5 -21.5°
Reaches altitude 10° 23:44:05 10° 50° (NE) 2,273 5.4 -21.5°
Maximum altitude 23:48:15 27° 108° (ESE) 1,412 3.7 -21.5°
Enters shadow 23:48:48 26° 119° (ESE) 1,430 3.6 -21.5°
